Date String (YYYY-MM-DD hh:mm:ss) UTC,Instrument flags,Ambient pressure (hPa),Sample flow (lpm),Bypass flow (lpm),Sample temperature (°C),Ambient temperature (°C),ASC tube jacket temperature (°C),LED temperature (°C),Box temperature (°C),Sample RH (%),Span deviation,Mass concentration (μg/m³),Mass concentration (μg/m³),Mass concentration (μg/m³)
DateTimeUTC,F1_M11,P_M11,Q1_M11,Q2_M11,T1_M11,T2_M11,T3_M11,T4_M11,T5_M11,U1_M11,ZSPAN_M11,X0_M11,X2_M11,X1_M11
2022-03-25 19:00:00,,0829.7,5.01,0.00,26.1,25.4,00.0,34.9,28.0,13.9,0000.0,0026.14,0006.42,0004.81
2022-03-25 19:01:00,,0829.7,5.00,0.00,26.1,25.4,00.0,35.0,27.9,13.8,0000.0,0026.85,0006.46,0004.83
2022-03-25 19:02:00,,0829.7,5.01,0.00,26.1,25.4,00.0,35.0,27.9,14.0,0000.0,0027.14,0006.53,0004.86
2022-03-25 19:03:00,,0829.8,5.00,0.00,26.1,25.3,00.0,35.0,27.9,13.7,0000.0,0027.83,0006.57,0004.87
2022-03-25 19:04:00,,0829.7,5.01,0.00,26.1,25.3,00.0,35.0,27.9,13.8,0000.0,0027.12,0006.53,0004.85
2022-03-25 19:05:00,,0829.7,4.99,0.00,26.1,25.3,00.0,35.0,27.9,14.4,0000.0,0023.90,0006.44,0004.84
2022-03-25 19:06:00,,0829.7,5.01,0.00,26.1,25.3,00.0,35.0,27.9,14.1,0000.0,0022.20,0006.44,0004.84
2022-03-25 19:07:00,,0829.7,5.00,0.00,26.1,25.3,00.0,35.0,27.9,13.7,0000.0,0022.12,0006.44,0004.86
2022-03-25 19:08:00,,0829.7,4.99,0.00,26.1,25.4,00.0,35.0,27.9,13.7,0000.0,0022.34,0006.55,0004.86
2022-03-25 19:09:00,,0829.7,5.00,0.00,26.1,25.4,00.0,35.0,27.9,13.6,0000.0,0022.08,0006.61,0004.86
2022-03-25 19:10:00,,0829.6,5.01,0.00,26.1,25.4,00.0,35.0,27.9,13.6,0000.0,0021.42,0006.58,0004.86
2022-03-25 19:11:00,,0829.6,5.01,0.00,26.1,25.4,00.0,35.0,27.9,13.5,0000.0,0020.86,0006.58,0004.87
2022-03-25 19:12:00,,0829.6,5.00,0.00,26.1,25.4,00.0,35.0,27.9,13.8,0000.0,0020.58,0006.54,0004.87
2022-03-25 19:13:00,,0829.6,4.98,0.00,26.1,25.3,00.0,35.0,27.9,13.7,0000.0,0020.45,0006.47,0004.86
2022-03-25 19:14:00,,0829.6,5.01,0.00,26.1,25.4,00.0,35.0,28.0,13.8,0000.0,0019.32,0006.49,0004.86
2022-03-25 19:15:00,,0829.6,5.00,0.00,26.1,25.4,00.0,35.0,28.0,13.7,0000.0,0019.03,0006.52,0004.88
2022-03-25 19:16:00,,0829.6,5.01,0.00,26.1,25.4,00.0,35.0,28.0,13.6,0000.0,0019.40,0006.57,0004.91
2022-03-25 19:17:00,,0829.6,4.99,0.00,26.2,25.4,00.0,35.1,28.0,13.6,0000.0,0020.01,0006.58,0004.92
2022-03-25 19:18:00,,0829.5,5.00,0.00,26.1,25.4,00.0,35.1,28.0,13.5,0000.0,0020.75,0006.63,0004.92
2022-03-25 19:19:00,,0829.5,5.00,0.00,26.2,25.4,00.0,35.1,28.0,13.6,0000.0,0021.25,0006.59,0004.91
2022-03-25 19:20:00,,0829.5,5.01,0.00,26.2,25.4,00.0,35.1,28.0,13.7,0000.0,0020.87,0006.63,0004.92
2022-03-25 19:21:00,,0829.5,5.01,0.00,26.2,25.5,00.0,35.1,28.0,14.0,0000.0,0019.94,0006.62,0004.92
2022-03-25 19:22:00,,0829.5,4.99,0.00,26.2,25.5,00.0,35.1,28.0,14.3,0000.0,0019.37,0006.62,0004.92
2022-03-25 19:23:00,,0829.5,4.99,0.00,26.2,25.5,00.0,35.1,28.0,14.0,0000.0,0019.13,0006.67,0004.93
2022-03-25 19:24:00,,0829.5,5.00,0.00,26.2,25.5,00.0,35.1,28.0,14.4,0000.0,0020.09,0006.77,0004.94
2022-03-25 19:25:00,,0829.5,5.00,0.00,26.2,25.5,00.0,35.1,28.1,14.5,0000.0,0021.33,0006.78,0004.95
2022-03-25 19:26:00,,0829.5,5.00,0.00,26.2,25.5,00.0,35.1,28.0,13.9,0000.0,0021.86,0006.75,0004.96
2022-03-25 19:27:00,,0829.4,5.01,0.00,26.2,25.5,00.0,35.1,28.0,14.0,0000.0,0022.18,0006.69,0004.97
2022-03-25 19:28:00,,0829.3,5.00,0.00,26.2,25.5,00.0,35.1,28.0,14.0,0000.0,0022.29,0006.73,0004.98
2022-03-25 19:29:00,,0829.4,5.01,0.00,26.2,25.5,00.0,35.1,28.0,13.9,0000.0,0022.13,0006.82,0005.00
2022-03-25 19:30:00,,0829.4,5.00,0.00,26.2,25.5,00.0,35.1,28.0,14.5,0000.0,0021.39,0006.83,0005.02
2022-03-25 19:31:00,,0829.4,4.99,0.00,26.2,25.5,00.0,35.1,28.0,13.9,0000.0,0022.50,0006.81,0005.03
2022-03-25 19:32:00,,0829.3,5.00,0.00,26.2,25.5,00.0,35.1,28.0,13.8,0000.0,0023.16,0006.82,0005.03
2022-03-25 19:33:00,,0829.3,4.98,0.00,26.2,25.5,00.0,35.1,28.1,14.1,0000.0,0023.12,0006.85,0005.04
2022-03-25 19:34:00,,0829.4,5.00,0.00,26.2,25.5,00.0,35.1,28.1,13.9,0000.0,0022.72,0006.84,0005.05
2022-03-25 19:35:00,,0829.3,5.00,0.00,26.2,25.5,00.0,35.1,28.1,13.9,0000.0,0022.04,0006.80,0005.06
2022-03-25 19:36:00,,0829.3,5.00,0.00,26.2,25.5,00.0,35.2,28.1,14.0,0000.0,0020.20,0006.81,0005.09
2022-03-25 19:37:00,,0829.4,5.00,0.00,26.2,25.6,00.0,35.2,28.1,14.2,0000.0,0019.08,0006.89,0005.10
2022-03-25 19:38:00,,0829.2,4.99,0.00,26.3,25.6,00.0,35.2,28.1,13.8,0000.0,0018.99,0007.04,0005.12
2022-03-25 19:39:00,,0829.2,5.00,0.00,26.3,25.6,00.0,35.2,28.2,13.8,0000.0,0019.18,0007.13,0005.16
2022-03-25 19:40:00,,0829.2,5.01,0.00,26.3,25.6,00.0,35.2,28.2,14.1,0000.0,0019.93,0007.04,0005.18
2022-03-25 19:41:00,,0829.2,5.00,0.00,26.3,25.6,00.0,35.2,28.2,13.9,0000.0,0020.00,0007.05,0005.20
2022-03-25 19:42:00,,0829.2,5.00,0.00,26.3,25.7,00.0,35.2,28.2,13.7,0000.0,0018.84,0007.08,0005.23
2022-03-25 19:43:00,,0829.2,5.01,0.00,26.4,25.7,00.0,35.2,28.2,13.7,0000.0,0018.31,0007.12,0005.26
2022-03-25 19:44:00,,0829.2,4.99,0.00,26.4,25.8,00.0,35.2,28.3,13.7,0000.0,0018.70,0007.13,0005.27
2022-03-25 19:45:00,,0829.2,5.00,0.00,26.4,25.8,00.0,35.3,28.3,13.6,0000.0,0019.75,0007.18,0005.30
2022-03-25 19:46:00,,0829.2,5.01,0.00,26.5,25.9,00.0,35.3,28.3,13.6,0000.0,0020.12,0007.27,0005.32
2022-03-25 19:47:00,,0829.2,4.99,0.00,26.5,25.9,00.0,35.3,28.4,13.8,0000.0,0020.42,0007.29,0005.34
2022-03-25 19:48:00,,0829.2,5.00,0.00,26.5,26.0,00.0,35.3,28.4,13.7,0000.0,0020.51,0007.25,0005.36
2022-03-25 19:49:00,,0829.2,5.01,0.00,26.6,26.0,00.0,35.3,28.5,13.5,0000.0,0020.00,0007.18,0005.35
2022-03-25 19:50:00,,0829.2,5.00,0.00,26.6,26.0,00.0,35.4,28.5,13.7,0000.0,0019.79,0007.18,0005.34
2022-03-25 19:51:00,,0829.2,5.01,0.00,26.6,26.0,00.0,35.4,28.5,13.7,0000.0,0019.37,0007.20,0005.35
2022-03-25 19:52:00,,0829.1,4.98,0.00,26.7,26.1,00.0,35.4,28.5,13.7,0000.0,0019.29,0007.22,0005.35
2022-03-25 19:53:00,,0829.1,5.01,0.00,26.7,26.1,00.0,35.4,28.6,13.9,0000.0,0020.12,0007.26,0005.36
2022-03-25 19:54:00,,0829.1,5.00,0.00,26.7,26.1,00.0,35.5,28.6,13.6,0000.0,0020.35,0007.32,0005.37
2022-03-25 19:55:00,,0829.1,5.00,0.00,26.7,26.1,00.0,35.5,28.6,13.6,0000.0,0020.10,0007.35,0005.39
2022-03-25 19:56:00,,0829.1,5.00,0.00,26.7,26.1,00.0,35.5,28.6,13.7,0000.0,0020.13,0007.35,0005.40
2022-03-25 19:57:00,,0829.2,5.00,0.00,26.7,26.1,00.0,35.5,28.7,13.6,0000.0,0021.77,0007.33,0005.41
2022-03-25 19:58:00,,0829.1,5.00,0.00,26.8,26.1,00.0,35.5,28.7,13.5,0000.0,0022.55,0007.31,0005.42
2022-03-25 19:59:00,,0829.1,5.00,0.00,26.8,26.1,00.0,35.6,28.7,13.5,0000.0,0022.47,0007.34,0005.44
